Theta_e
320 320 318 314 310 308 308 308 306 305 304 304 305 305 306 307 307 306 306 305 305 305 305 305 305 305 305 305 305 305 305 304 305 305 304 305 305 305 305 304 304 304
320 319 315 312 311 310 308 308 306 304 304 304 305 305 305 306 306 305 305 305 305 305 305 305 305 305 305 304 304 304 304 304 304 304 304 304 304 304 304 303 303 304
320 316 312 310 312 313 309 307 306 304 304 305 305 305 305 305 305 305 305 305 305 305 305 305 305 305 304 304 304 304 304 304 304 304 304 304 304 304 304 305 305 306
318 315 312 311 313 316 313 308 306 305 305 305 305 305 305 305 305 305 305 305 305 305 305 305 305 305 304 304 304 304 305 305 305 305 305 305 306 306 306 307 308 309
316 314 314 312 312 315 316 311 306 305 305 305 306 305 305 306 305 305 305 306 305 305 305 305 305 305 305 305 305 305 306 307 307 308 308 308 308 308 308 309 309 310
315 314 315 314 311 314 317 313 307 306 306 306 306 306 306 306 306 306 306 306 306 305 306 305 305 305 305 305 306 306 306 307 308 308 308 308 309 309 309 309 309 310
315 314 315 314 312 314 316 315 310 307 306 306 306 306 306 306 306 306 306 306 306 306 305 306 306 306 306 306 306 306 307 307 307 307 307 307 307 308 308 308 308 309
314 315 317 315 314 315 316 317 314 309 307 307 307 307 307 307 307 307 307 307 307 306 306 306 306 306 306 306 306 307 307 307 307 307 307 307 307 307 307 307 308 308
314 317 318 315 314 315 316 317 317 313 309 307 308 308 308 307 307 307 307 307 307 307 307 306 307 307 307 307 307 308 309 311 312 311 311 311 310 309 309 308 308 309
316 318 319 316 314 315 316 317 318 316 312 309 308 310 311 311 310 308 308 308 308 308 308 308 308 307 308 308 309 310 312 315 316 316 316 316 315 315 314 313 313 312
318 319 320 317 314 315 316 316 318 318 316 313 311 311 313 314 314 312 311 310 309 310 310 311 311 311 311 312 313 313 314 315 316 316 316 317 317 317 316 316 316 315
320 319 320 318 315 315 316 317 318 319 318 316 314 313 313 314 315 316 314 313 312 311 312 312 312 312 314 315 316 316 316 315 316 316 316 316 317 317 316 316 316 316
320 320 319 317 315 316 317 317 318 319 318 317 316 315 315 315 315 316 316 315 314 313 313 313 312 312 314 316 317 316 316 316 316 316 316 316 316 316 316 316 315 315
322 322 320 318 316 317 317 317 318 320 320 318 316 316 316 315 315 316 316 316 315 315 314 314 314 314 314 316 316 316 316 316 316 317 316 315 314 315 315 315 315 315
323 322 321 319 317 317 317 317 317 319 320 318 316 315 315 315 314 315 316 316 316 315 314 314 315 315 314 314 315 317 317 317 317 317 316 314 313 314 315 315 316 316
322 322 320 319 319 318 318 318 317 319 319 318 316 315 314 314 315 315 316 316 315 314 314 315 315 314 313 312 314 316 317 317 317 317 316 315 314 314 315 315 316 316
321 320 319 318 319 319 319 319 318 318 318 317 316 315 314 314 315 315 315 315 314 313 314 315 315 314 313 313 314 316 317 317 317 316 316 316 315 315 315 315 315 316
320 319 318 318 319 319 319 319 318 318 317 316 316 316 315 315 315 315 315 315 314 314 314 315 315 315 314 314 315 316 317 317 316 315 315 315 314 313 311 310 310 312
319 318 318 318 319 319 318 318 318 317 317 317 317 317 316 315 315 315 315 315 314 315 315 315 315 315 315 315 316 316 316 315 314 314 313 311 309 306 304 304 305 306
318 318 318 318 318 318 318 318 317 318 318 317 317 317 316 316 316 316 315 315 315 316 316 316 315 315 316 316 316 315 313 312 312 310 307 305 303 302 301 302 303 306
318 318 318 318 318 318 318 318 318 318 318 318 317 317 316 316 316 316 316 316 316 315 315 315 315 315 315 315 314 312 310 309 307 305 303 302 302 302 302 302 302 304
314 315 316 317 317 318 318 318 318 317 317 316 315 315 314 314 315 315 316 315 315 314 314 314 314 314 314 313 311 309 307 306 305 304 303 303 302 302 302 302 302 302
310 311 313 313 314 316 317 316 315 315 314 313 313 313 313 313 314 314 314 314 314 314 314 313 313 312 311 310 308 307 307 306 306 305 304 303 302 302 302 301 302 302
308 309 311 312 313 315 315 314 313 312 312 312 312 312 313 313 313 313 313 313 313 312 311 310 310 309 309 309 309 309 309 308 308 307 306 305 305 304 304 303 302 302
307 307 308 311 313 313 312 311 310 311 311 311 310 311 311 312 312 312 312 311 310 308 308 308 308 309 310 310 310 310 310 310 309 309 308 308 307 306 306 305 304 304
306 307 307 309 310 309 307 307 307 307 308 308 308 309 309 309 310 309 309 308 307 307 308 308 309 310 310 311 311 310 310 310 310 310 309 309 308 307 306 305 304 304
Wind_Speed
13 11 10 7 5 6 6 6 6 5 3 3 4 6 7 8 7 7 7 7 8 8 9 9 10 10 11 11 10 10 10 10 9 9 8 7 6 6 6 6 7 7
13 10 9 6 4 6 6 5 5 4 4 5 6 7 8 9 8 8 7 7 8 8 9 9 9 9 9 10 10 10 10 9 9 9 8 7 7 7 7 8 9 10
13 10 11 8 5 6 7 6 6 6 6 7 8 9 9 9 9 8 8 8 8 9 9 9 9 9 9 10 11 11 11 11 10 11 10 10 10 10 10 10 11 11
13 12 13 10 8 8 9 8 8 8 9 9 9 10 10 10 10 9 9 8 8 9 9 9 9 10 10 11 12 12 12 12 12 13 12 12 11 11 11 11 11 11
17 15 14 13 12 11 11 10 10 11 11 10 10 10 10 10 10 10 10 10 10 9 9 9 9 9 10 10 11 11 12 13 13 12 11 11 11 10 9 9 9 8
21 20 18 18 17 15 14 11 11 13 12 11 11 11 10 10 10 10 10 10 10 10 9 8 8 8 8 9 9 9 10 10 10 11 10 9 8 8 7 6 6 5
25 24 22 24 22 18 17 14 13 15 15 13 12 11 11 10 9 9 9 9 9 8 8 8 7 7 7 8 8 8 8 7 7 7 6 6 5 5 4 4 3 2
28 24 21 26 27 21 19 18 16 16 17 16 14 12 11 10 10 9 8 7 7 6 6 6 5 5 5 6 6 5 5 4 3 3 3 2 2 2 1 1 2 2
31 25 20 25 29 24 20 20 20 19 19 18 16 13 12 11 11 10 9 8 7 6 6 5 5 4 3 3 3 3 3 3 2 2 2 2 2 2 2 3 3 3
33 28 21 25 30 26 22 22 23 24 21 20 19 16 14 14 13 12 11 10 9 8 8 7 7 6 5 3 2 2 1 1 1 1 1 1 2 2 3 4 4 5
33 30 24 26 31 27 24 24 26 27 25 23 23 21 18 17 15 15 13 12 12 11 10 10 9 8 6 5 4 4 3 2 2 4 5 5 4 4 5 5 5 6
31 31 26 26 30 27 26 25 26 30 30 27 26 25 23 20 19 19 17 16 15 14 13 12 10 9 8 7 7 6 6 6 5 7 9 9 9 9 9 9 9 9
30 30 27 27 29 26 26 27 26 29 32 32 31 29 24 20 21 22 21 20 18 16 15 14 13 13 12 10 9 9 9 9 10 11 12 12 13 12 12 13 12 12
26 25 25 27 30 27 27 28 27 27 30 33 33 30 24 20 22 25 25 23 20 17 16 15 14 14 13 11 12 12 12 13 14 15 15 14 14 13 14 14 15 15
19 20 22 25 30 30 29 29 28 27 26 26 26 28 27 24 24 26 26 25 21 17 16 18 19 18 15 12 12 13 15 16 16 17 17 17 16 15 16 16 17 17
15 18 19 21 26 28 28 28 28 27 24 21 21 25 29 29 28 29 29 27 24 20 19 22 24 21 17 15 15 17 18 18 17 19 21 20 18 18 18 18 17 18
12 15 16 18 21 23 24 25 25 25 21 19 20 23 26 28 28 29 30 28 26 24 22 23 24 22 19 18 19 20 20 20 21 22 21 19 18 18 18 18 18 18
11 13 14 15 17 19 20 21 22 22 19 18 21 21 21 21 20 21 24 25 27 25 22 20 21 22 21 20 20 20 20 20 20 19 17 17 18 19 19 19 19 19
12 14 15 16 17 18 19 21 22 21 18 17 18 17 17 17 16 16 19 22 25 24 20 18 18 19 20 19 19 19 18 16 15 16 17 18 19 18 17 16 16 16
13 14 15 16 17 17 17 18 17 16 15 16 16 15 15 16 16 16 17 19 21 20 17 16 16 17 17 16 15 14 13 14 16 17 17 16 14 13 13 12 13 13
13 14 14 16 16 16 16 15 14 14 15 16 15 13 14 15 15 15 16 16 17 16 15 14 14 13 12 11 11 11 12 13 13 12 11 10 9 10 10 11 11 11
12 14 16 17 18 17 16 15 14 14 15 15 14 14 14 14 14 14 14 14 14 13 13 12 12 12 11 10 10 9 9 9 8 7 7 8 8 9 10 10 11 10
10 10 11 12 13 14 14 13 14 14 15 14 13 13 12 12 12 12 12 12 12 11 11 11 11 11 10 9 8 6 6 7 8 8 8 8 9 9 9 10 10 9
9 8 8 7 7 9 11 12 12 13 13 13 12 12 12 12 12 12 12 12 12 11 11 11 10 9 8 7 6 6 7 8 8 9 9 10 10 10 10 10 10 9
11 9 10 9 9 9 11 11 11 12 12 12 13 12 12 13 12 12 12 12 11 11 10 9 8 7 6 7 7 7 8 8 9 10 10 11 11 12 11 11 10 9
13 12 12 13 12 11 10 10 11 13 14 14 14 14 14 14 14 13 12 11 10 8 7 7 6 6 7 7 8 8 8 9 9 9 10 11 12 12 11 10 9 8
Wind_Direction
220 238 255 268 265 248 253 277 279 259 232 183 152 148 150 151 152 146 138 134 130 126 123 118 115 112 112 112 113 115 115 113 114 113 111 111 108 105 102 98 94 91
210 229 237 229 236 252 253 260 263 238 200 166 152 150 153 156 157 155 149 145 142 138 135 130 125 120 116 114 112 112 112 111 111 111 109 109 108 108 107 103 99 95
200 214 210 191 196 246 252 244 232 212 186 167 159 155 153 155 159 160 157 155 151 147 144 139 132 126 120 115 112 110 109 109 108 107 109 111 110 110 109 105 100 96
194 204 204 190 192 231 249 240 223 204 186 173 163 159 157 156 159 163 162 160 160 155 148 143 138 133 126 119 116 115 113 112 110 107 110 113 112 111 111 109 104 99
197 198 210 204 196 218 240 234 222 213 196 183 176 169 164 161 161 163 163 163 163 163 158 151 145 139 133 127 123 122 120 118 115 111 111 113 113 114 115 113 110 107
211 206 213 204 194 210 229 227 221 220 212 198 191 185 178 175 173 170 170 170 169 168 167 162 155 149 143 136 130 128 125 123 122 120 120 119 118 119 120 118 120 118
219 213 217 206 200 212 221 220 220 220 221 215 205 200 195 191 188 185 182 181 180 176 176 175 169 162 155 146 139 135 132 127 127 127 127 126 119 116 116 112 112 105
211 217 234 220 215 222 222 220 221 218 221 222 215 210 208 205 203 201 198 194 193 189 186 186 182 176 165 155 146 139 132 121 115 110 101 94 82 68 59 56 48 37
211 223 246 228 221 228 228 227 227 222 219 221 220 215 211 212 213 210 209 206 203 205 210 214 215 212 203 182 160 135 110 88 77 68 57 46 32 12 352 349 350 353
217 228 241 227 220 225 230 232 231 227 222 217 218 217 213 214 215 214 213 209 207 210 217 221 222 222 223 225 217 186 143 95 39 353 344 354 356 346 334 333 333 334
226 234 241 228 220 226 236 237 233 230 227 220 217 217 218 220 219 216 214 211 209 210 214 218 217 215 213 214 215 214 214 222 294 309 302 289 287 296 301 304 307 313
234 242 245 229 220 230 243 242 237 232 229 226 222 219 220 224 227 227 223 219 216 214 218 224 226 224 219 213 214 222 234 242 265 291 295 288 281 279 281 284 283 284
242 249 249 231 220 231 245 245 241 236 232 230 228 225 224 226 233 239 235 230 229 227 226 230 236 239 234 229 234 240 247 253 263 278 288 287 282 276 276 280 280 278
248 253 251 235 224 231 242 243 242 242 238 234 229 226 226 228 235 242 244 241 238 236 235 236 243 249 246 246 253 254 257 264 267 272 282 284 278 273 274 276 278 277
255 254 251 241 232 234 239 241 242 243 240 242 239 232 230 233 236 241 246 244 239 241 246 246 252 260 253 248 258 264 268 271 268 270 283 286 277 274 277 278 277 277
260 254 252 246 239 240 242 242 244 241 238 249 254 241 235 240 243 244 245 240 237 246 251 246 249 255 246 242 261 275 278 277 272 277 287 287 280 280 283 282 281 280
257 255 258 254 245 242 241 240 240 237 237 249 253 243 240 245 250 248 242 236 236 246 253 249 248 249 247 255 270 278 281 280 278 281 285 283 282 284 285 285 284 283
257 260 264 255 242 237 238 238 239 240 242 248 247 243 243 249 254 249 240 236 237 243 252 254 248 247 254 264 272 275 277 278 277 279 281 283 286 288 287 286 284 281
257 259 258 248 239 238 241 243 246 247 247 245 244 242 242 248 253 246 239 238 238 242 250 251 245 249 257 264 267 268 269 271 274 280 285 288 289 289 289 288 285 282
256 254 251 247 244 245 245 244 243 242 238 239 243 243 240 243 246 242 239 239 239 241 244 242 242 248 252 252 252 254 261 272 281 287 290 292 293 294 297 297 293 289
261 257 253 251 250 248 245 241 237 234 233 235 237 233 229 231 234 234 232 231 232 232 232 232 234 234 230 230 237 252 269 280 284 288 292 298 304 309 312 312 308 301
263 260 255 251 248 246 243 238 231 225 222 222 219 216 217 219 219 219 219 219 221 221 219 218 214 211 214 226 243 261 277 282 284 290 296 302 306 309 312 315 317 314
265 268 263 252 244 238 231 224 217 209 205 204 205 204 204 203 202 202 203 204 204 203 204 205 206 212 223 235 249 268 286 291 294 299 303 307 309 312 317 320 322 323
256 274 274 255 230 217 210 207 205 202 200 200 198 196 192 190 192 194 196 198 199 201 206 208 211 218 226 236 255 274 289 298 304 310 316 320 322 326 330 331 332 330
240 255 260 249 226 211 208 208 206 205 203 200 198 197 196 197 200 203 205 205 204 203 203 204 207 216 229 244 260 273 284 296 305 314 323 329 333 336 337 336 334 329
235 234 239 236 222 211 209 210 211 212 209 206 204 204 204 206 205 205 204 200 197 196 196 202 213 224 238 252 265 277 288 297 305 316 326 331 334 335 334 330 322 313